When you browse on this site, cookies collect data to enhance your experience and personalize the content and advertising you see.
Visit our Privacy Policy to learn more. By continuing to use the site, you agree to this use of cookies and data.
  • In Latvia
  • List of Countries
  • For 7 days
  • Water Temperature
  • Weather Map
  • Weather Widgets
  • user-avatar
    Login

    Hourly Weather Concord

    Today, 16 September, Monday

    Time Temperature Precipitation Wind Pressure Humidity
    00:00 +14°C° 0 mm 2 mps 754 mmHg 93%
    01:00 +13°C° 0 mm 2 mps 754 mmHg 93%
    02:00 +13°C° 0 mm 2 mps 754 mmHg 92%
    03:00 +12°C° 0 mm 1 mps 754 mmHg 91%
    04:00 +12°C° 0 mm 1 mps 754 mmHg 89%
    05:00 +12°C° 0 mm 1 mps 754 mmHg 85%
    06:00 +13°C° 0 mm 1 mps 754 mmHg 81%
    07:00 +13°C° 0 mm 2 mps 755 mmHg 78%
    08:00 +15°C° 0 mm 2 mps 754 mmHg 68%
    09:00 +17°C° 0 mm 3 mps 754 mmHg 58%
    10:00 +20°C° 0 mm 4 mps 754 mmHg 48%
    11:00 +20°C° 0 mm 4 mps 753 mmHg 46%
    12:00 +21°C° 0 mm 4 mps 753 mmHg 43%
    13:00 +22°C° 0 mm 4 mps 753 mmHg 40%
    14:00 +22°C° 0 mm 4 mps 753 mmHg 41%
    15:00 +22°C° 0 mm 4 mps 752 mmHg 42%
    16:00 +21°C° 0 mm 4 mps 752 mmHg 42%
    17:00 +19°C° 0 mm 3 mps 753 mmHg 49%
    18:00 +16°C° 0 mm 3 mps 753 mmHg 56%
    19:00 +14°C° 0 mm 2 mps 754 mmHg 63%
    20:00 +13°C° 0 mm 2 mps 754 mmHg 69%
    21:00 +12°C° 0 mm 2 mps 754 mmHg 74%
    22:00 +11°C° 0 mm 1 mps 754 mmHg 80%
    23:00 +11°C° 0 mm 1 mps 755 mmHg 83%

    Tomorrow, 17 September, Tuesday

    Time Temperature Precipitation Wind Pressure Humidity
    00:00 +10°C° 0 mm 1 mps 755 mmHg 86%
    01:00 +10°C° 0 mm 1 mps 755 mmHg 88%
    02:00 +10°C° 0 mm 1 mps 755 mmHg 90%
    03:00 +9°C° 0 mm 1 mps 755 mmHg 92%
    04:00 +9°C° 0 mm 1 mps 755 mmHg 93%
    05:00 +10°C° 0 mm 1 mps 755 mmHg 88%
    06:00 +11°C° 0 mm 1 mps 756 mmHg 84%
    07:00 +12°C° 0 mm 1 mps 756 mmHg 79%
    08:00 +14°C° 0 mm 2 mps 757 mmHg 68%
    09:00 +17°C° 0 mm 2 mps 757 mmHg 58%
    10:00 +19°C° 0 mm 2 mps 757 mmHg 48%
    11:00 +20°C° 0 mm 2 mps 756 mmHg 46%
    12:00 +21°C° 0 mm 2 mps 756 mmHg 44%
    13:00 +21°C° 0 mm 2 mps 756 mmHg 42%
    14:00 +21°C° 0 mm 2 mps 756 mmHg 46%
    15:00 +21°C° 0 mm 1 mps 756 mmHg 49%
    16:00 +21°C° 0 mm 1 mps 756 mmHg 53%
    17:00 +18°C° 0 mm 1 mps 756 mmHg 63%
    18:00 +15°C° 0 mm 1 mps 757 mmHg 74%
    19:00 +13°C° 0 mm 1 mps 757 mmHg 84%
    20:00 +11°C° 0 mm 0 mps 758 mmHg 86%
    21:00 +11°C° 0 mm 0 mps 758 mmHg 87%
    22:00 +11°C° 0 mm 0 mps 758 mmHg 89%
    23:00 +11°C° 0 mm 0 mps 758 mmHg 88%

    Day after tomorrow, 18 September, Wednesday

    Time Temperature Precipitation Wind Pressure Humidity
    00:00 +11°C° 0 mm 0 mps 758 mmHg 86%
    01:00 +12°C° 0 mm 1 mps 758 mmHg 85%
    02:00 +12°C° 0 mm 1 mps 758 mmHg 85%
    03:00 +12°C° 0 mm 1 mps 759 mmHg 84%
    04:00 +12°C° 0 mm 1 mps 759 mmHg 84%
    05:00 +12°C° 0 mm 1 mps 759 mmHg 82%
    06:00 +12°C° 0 mm 1 mps 759 mmHg 80%
    07:00 +13°C° 0 mm 1 mps 759 mmHg 78%
    08:00 +15°C° 0 mm 1 mps 760 mmHg 68%
    09:00 +18°C° 0 mm 1 mps 760 mmHg 58%
    10:00 +20°C° 0 mm 1 mps 760 mmHg 48%
    11:00 +21°C° 0 mm 1 mps 760 mmHg 45%
    12:00 +21°C° 0 mm 1 mps 760 mmHg 42%
    13:00 +22°C° 0 mm 1 mps 760 mmHg 39%
    14:00 +21°C° 0 mm 2 mps 759 mmHg 42%
    15:00 +20°C° 0 mm 2 mps 759 mmHg 44%
    16:00 +19°C° 0 mm 3 mps 759 mmHg 46%
    17:00 +16°C° 0 mm 2 mps 760 mmHg 58%
    18:00 +13°C° 0 mm 1 mps 760 mmHg 69%
    19:00 +10°C° 0 mm 1 mps 760 mmHg 81%
    20:00 +9°C° 0 mm 1 mps 761 mmHg 85%
    21:00 +7°C° 0 mm 0 mps 761 mmHg 89%
    22:00 +7°C° 0 mm 0 mps 761 mmHg 92%
    23:00 +6°C° 0 mm 0 mps 761 mmHg 93%

    19 September, Thursday

    Time Temperature Precipitation Wind Pressure Humidity
    00:00 +6°C° 0 mm 0 mps 761 mmHg 94%
    01:00 +6°C° 0 mm 0 mps 762 mmHg 94%
    02:00 +6°C° 0 mm 0 mps 762 mmHg 94%
    03:00 +6°C° 0 mm 0 mps 762 mmHg 94%
    04:00 +6°C° 0 mm 0 mps 762 mmHg 94%
    05:00 +7°C° 0 mm 0 mps 762 mmHg 90%
    06:00 +8°C° 0 mm 0 mps 762 mmHg 85%
    07:00 +9°C° 0 mm 0 mps 762 mmHg 80%
    08:00 +13°C° 0 mm 0 mps 762 mmHg 68%
    09:00 +16°C° 0 mm 0 mps 762 mmHg 56%
    10:00 +19°C° 0 mm 0 mps 762 mmHg 44%
    11:00 +20°C° 0 mm 0 mps 762 mmHg 41%
    12:00 +23°C° 0 mm 1 mps 761 mmHg 39%
    13:00 +24°C° 0 mm 1 mps 761 mmHg 36%
    14:00 +23°C° 0 mm 1 mps 761 mmHg 39%
    15:00 +23°C° 0 mm 1 mps 761 mmHg 41%
    16:00 +22°C° 0 mm 1 mps 760 mmHg 44%
    17:00 +19°C° 0 mm 1 mps 761 mmHg 55%
    18:00 +15°C° 0 mm 1 mps 761 mmHg 65%
    19:00 +12°C° 0 mm 1 mps 761 mmHg 76%
    20:00 +11°C° 0 mm 1 mps 762 mmHg 78%
    21:00 +10°C° 0 mm 1 mps 762 mmHg 80%
    22:00 +8°C° 0 mm 0 mps 762 mmHg 82%
    23:00 +8°C° 0 mm 0 mps 762 mmHg 83%

    20 September, Friday

    Time Temperature Precipitation Wind Pressure Humidity
    00:00 +7°C° 0 mm 0 mps 761 mmHg 84%
    01:00 +7°C° 0 mm 0 mps 761 mmHg 85%
    02:00 +7°C° 0 mm 0 mps 761 mmHg 85%
    03:00 +7°C° 0 mm 0 mps 761 mmHg 85%
    04:00 +8°C° 0 mm 1 mps 761 mmHg 86%
    05:00 +10°C° 0 mm 1 mps 761 mmHg 81%
    06:00 +11°C° 0 mm 1 mps 761 mmHg 76%
    07:00 +13°C° 0 mm 1 mps 761 mmHg 71%
    08:00 +16°C° 0 mm 1 mps 761 mmHg 62%
    09:00 +21°C° 0 mm 1 mps 761 mmHg 53%
    10:00 +24°C° 0 mm 1 mps 761 mmHg 44%
    11:00 +26°C° 0 mm 1 mps 760 mmHg 42%
    12:00 +27°C° 0 mm 1 mps 760 mmHg 40%
    13:00 +28°C° 0 mm 1 mps 759 mmHg 39%
    14:00 +27°C° 0 mm 1 mps 759 mmHg 43%
    15:00 +27°C° 0 mm 1 mps 758 mmHg 47%
    16:00 +26°C° 0 mm 1 mps 758 mmHg 52%
    17:00 +21°C° 0 mm 0 mps 758 mmHg 60%
    18:00 +18°C° 0 mm 0 mps 758 mmHg 68%
    19:00 +16°C° 0 mm 0 mps 758 mmHg 76%
    20:00 +15°C° 0 mm 0 mps 758 mmHg 77%
    21:00 +15°C° 0 mm 0 mps 757 mmHg 78%
    22:00 +14°C° 0 mm 0 mps 757 mmHg 79%
    23:00 +15°C° 0 mm 1 mps 757 mmHg 80%

    21 September, Saturday

    Time Temperature Precipitation Wind Pressure Humidity
    00:00 +15°C° 0 mm 1 mps 757 mmHg 81%
    01:00 +15°C° 0 mm 1 mps 756 mmHg 82%
    02:00 +15°C° 0 mm 1 mps 756 mmHg 86%
    03:00 +14°C° 0 mm 1 mps 756 mmHg 89%
    04:00 +14°C° 0 mm 1 mps 756 mmHg 92%
    05:00 +15°C° 0 mm 1 mps 756 mmHg 89%
    06:00 +16°C° 0 mm 1 mps 756 mmHg 86%
    07:00 +18°C° 0 mm 1 mps 756 mmHg 83%
    08:00 +21°C° 0 mm 1 mps 755 mmHg 72%
    09:00 +24°C° 0 mm 1 mps 755 mmHg 62%
    10:00 +27°C° 0 mm 1 mps 755 mmHg 52%
    11:00 +28°C° 0 mm 1 mps 754 mmHg 48%
    12:00 +29°C° 0 mm 1 mps 753 mmHg 45%
    13:00 +30°C° 0 mm 1 mps 753 mmHg 41%
    14:00 +30°C° 0 mm 1 mps 752 mmHg 46%
    15:00 +29°C° 0 mm 1 mps 752 mmHg 50%
    16:00 +29°C° 0 mm 1 mps 752 mmHg 55%
    17:00 +26°C° 0 mm 1 mps 752 mmHg 65%
    18:00 +21°C° 0 mm 0 mps 751 mmHg 74%
    19:00 +18°C° 0 mm 0 mps 751 mmHg 84%
    20:00 +17°C° 0 mm 0 mps 751 mmHg 86%
    21:00 +16°C° 0 mm 0 mps 751 mmHg 87%
    22:00 +16°C° 0 mm 0 mps 751 mmHg 89%
    23:00 +18°C° 0 mm 1 mps 751 mmHg 90%
    Show more